This is the latest recevied weather packets stored in our database for station/object AK4NG. If no packets are shown the sender has not sent any weather packets the latest 10 day(s).
| Time | Temp. | Humidity | Pressure | Rain* | Wind** | Luminosity | Snow |
|---|---|---|---|---|---|---|---|
| 1778141375 | 22.22° C | 94% | 1011.4 hPa | 0 mm | - | 0 W/m² | - |
| 1778141071 | 22.22° C | 95% | 1011.2 hPa | 0 mm | - | 0 W/m² | - |
| 1778140766 | 21.67° C | 95% | 1010.8 hPa | 0 mm | - | 0 W/m² | - |
| 1778140463 | 21.67° C | 96% | 1010.9 hPa | 1.78 mm | - | 0 W/m² | - |
| 1778140159 | 21.67° C | 96% | 1009.9 hPa | 1.78 mm | - | 0 W/m² | - |
| 1778139856 | 21.67° C | 96% | 1009.6 hPa | 0 mm | - | 0 W/m² | - |
| 1778139554 | 21.67° C | 96% | 1009.9 hPa | 0 mm | - | 0 W/m² | - |
| 1778139250 | 21.67° C | 96% | 1010.1 hPa | 1.27 mm | - | 0 W/m² | - |
| 1778138948 | 21.67° C | 97% | 1009.3 hPa | 3.05 mm | - | 0 W/m² | - |
| 1778138644 | 21.67° C | 97% | 1009.8 hPa | 1.78 mm | - | 0 W/m² | - |
| 1778138342 | 21.67° C | 97% | 1011.1 hPa | 3.05 mm | - | 0 W/m² | - |
| 1778138039 | 21.67° C | 97% | 1011.1 hPa | 3.05 mm | - | 0 W/m² | - |
| 1778137735 | 21.67° C | 97% | 1011.8 hPa | 1.78 mm | - | 0 W/m² | - |
| 1778137433 | 21.67° C | 97% | 1011.5 hPa | 1.78 mm | - | 0 W/m² | - |
| 1778137129 | 21.67° C | 97% | 1012 hPa | 3.05 mm | - | 0 W/m² | - |
| 1778136826 | 21.67° C | 98% | 1012.2 hPa | 4.32 mm | - | 0 W/m² | - |
| 1778136523 | 21.67° C | 98% | 1012.7 hPa | 1.27 mm | - | 0 W/m² | - |
| 1778136222 | 21.67° C | 98% | 1012.8 hPa | 4.32 mm | - | 0 W/m² | - |
| 1778135919 | 21.67° C | 98% | 1012.6 hPa | 8.89 mm | - | 0 W/m² | - |
| 1778135616 | 21.67° C | 98% | 1012.9 hPa | 7.87 mm | - | 0 W/m² | - |
| 1778135312 | 21.67° C | 98% | 1014.1 hPa | 1.78 mm | - | 0 W/m² | - |
| 1778135009 | 21.67° C | 98% | 1014.2 hPa | 3.05 mm | - | 0 W/m² | - |
| 1778134708 | 21.67° C | 98% | 1013.5 hPa | 7.87 mm | - | 0 W/m² | - |
| 1778134405 | 21.67° C | 98% | 1013.4 hPa | 6.1 mm | - | 0 W/m² | - |
| 1778134104 | 21.67° C | 98% | 1013.2 hPa | 1.27 mm | - | 0 W/m² | - |
* Rain latest hour (hover to see other rain measurements)
** Current wind speed in m/s (hover to see current wind gust speed)